Location: Tr�vern
(48.0333°N, 4.6000°W)
Time: 08:38:21
(UTC+00:00)

Cosmos 1066 Rocket - Pass Details

Date: 14 July 2020
Orbit: 799 x 893 km, 81.2° (Epoch: 04 August)

Event Time Altitude Azimuth Distance (km) Brightness Sun altitude
Rises 02:46:09 0° 348° (NNW) 3,512 8.1 -13.4°
Reaches altitude 10° 02:48:37 10° 349° (N) 2,572 7.4 -13.2°
Maximum altitude 02:54:30 86° 77° (ENE) 903 4.4 -12.6°
Drops below altitude 10° 03:00:21 10° 169° (SSE) 2,548 6.3 -12.1°
Enters shadow 03:02:11 - 169° (S) 3,245 6.8 -11.9°
